contact:dominique.lefevre@mio.osupytheas.fr, maurice.libes@osupytheas.fr, didier.mallarino@osupytheas.fr
Project:EMSO http://www.emso-fr.org/EMSO-France
Depth: 2436.0 m
Title:EMSO Ligure Ouest : Data MII capteur MICROCAT
DateTime_Computer,Latitude,Longitude,Temperature,Conductivity,Pressure,DateTime_Instrument
DateTime_Computer,Latitude,Longitude,degC,S m-1,dbar,DateTime_Instrument
2022-12-21T00:01:50Z,42.805,6.029,13.3014,4.60062,2470.553,2022-12-21T02:07:45Z
2022-12-21T00:04:53Z,42.805,6.029,13.3012,4.60061,2470.507,2022-12-21T02:10:48Z
2022-12-21T00:07:56Z,42.805,6.029,13.3009,4.60059,2470.53,2022-12-21T02:13:51Z
2022-12-21T00:10:59Z,42.805,6.029,13.3011,4.60060,2470.53,2022-12-21T02:16:54Z
2022-12-21T00:14:02Z,42.805,6.029,13.3014,4.60062,2470.544,2022-12-21T02:19:57Z
2022-12-21T00:17:05Z,42.805,6.029,13.3014,4.60060,2470.53,2022-12-21T02:23:01Z
2022-12-21T00:20:08Z,42.805,6.029,13.3010,4.60060,2470.553,2022-12-21T02:26:04Z
2022-12-21T00:23:11Z,42.805,6.029,13.3011,4.60060,2470.553,2022-12-21T02:29:07Z
2022-12-21T00:26:14Z,42.805,6.029,13.3013,4.60060,2470.553,2022-12-21T02:32:10Z
2022-12-21T00:29:18Z,42.805,6.029,13.3009,4.60059,2470.553,2022-12-21T02:35:13Z
2022-12-21T00:32:21Z,42.805,6.029,13.3009,4.60060,2470.53,2022-12-21T02:38:16Z
2022-12-21T00:35:24Z,42.805,6.029,13.3009,4.60061,2470.577,2022-12-21T02:41:19Z
2022-12-21T00:38:27Z,42.805,6.029,13.3011,4.60061,2470.553,2022-12-21T02:44:22Z
2022-12-21T00:41:30Z,42.805,6.029,13.3011,4.60060,2470.553,2022-12-21T02:47:25Z
2022-12-21T00:44:33Z,42.805,6.029,13.3009,4.60062,2470.553,2022-12-21T02:50:28Z
2022-12-21T00:47:36Z,42.805,6.029,13.3012,4.60063,2470.553,2022-12-21T02:53:31Z
2022-12-21T00:50:39Z,42.805,6.029,13.3015,4.60061,2470.591,2022-12-21T02:56:34Z
2022-12-21T00:53:42Z,42.805,6.029,13.3014,4.60062,2470.577,2022-12-21T02:59:38Z
2022-12-21T00:56:45Z,42.805,6.029,13.3009,4.60060,2470.591,2022-12-21T03:02:41Z
2022-12-21T00:59:48Z,42.805,6.029,13.3011,4.60062,2470.614,2022-12-21T03:05:44Z
2022-12-21T01:02:52Z,42.805,6.029,13.3011,4.60060,2470.577,2022-12-21T03:08:47Z
2022-12-21T01:05:55Z,42.805,6.029,13.3013,4.60062,2470.577,2022-12-21T03:11:50Z
2022-12-21T01:08:58Z,42.805,6.029,13.3011,4.60061,2470.637,2022-12-21T03:14:53Z
2022-12-21T01:12:01Z,42.805,6.029,13.3014,4.60060,2470.577,2022-12-21T03:17:56Z
2022-12-21T01:15:04Z,42.805,6.029,13.3013,4.60060,2470.577,2022-12-21T03:20:59Z
2022-12-21T01:18:07Z,42.805,6.029,13.3015,4.60062,2470.614,2022-12-21T03:24:02Z
2022-12-21T01:21:10Z,42.805,6.029,13.3013,4.60062,2470.577,2022-12-21T03:27:05Z
2022-12-21T01:24:13Z,42.805,6.029,13.3009,4.60062,2470.577,2022-12-21T03:30:08Z
2022-12-21T01:27:16Z,42.805,6.029,13.3009,4.60061,2470.591,2022-12-21T03:33:12Z
2022-12-21T01:30:19Z,42.805,6.029,13.3009,4.60061,2470.624,2022-12-21T03:36:15Z
2022-12-21T01:33:22Z,42.805,6.029,13.3009,4.60062,2470.614,2022-12-21T03:39:18Z
2022-12-21T01:36:25Z,42.805,6.029,13.3012,4.60063,2470.614,2022-12-21T03:42:21Z
2022-12-21T01:39:29Z,42.805,6.029,13.3012,4.60061,2470.624,2022-12-21T03:45:24Z
2022-12-21T01:42:32Z,42.805,6.029,13.3013,4.60062,2470.6,2022-12-21T03:48:27Z
2022-12-21T01:45:35Z,42.805,6.029,13.3010,4.60059,2470.6,2022-12-21T03:51:30Z
2022-12-21T01:48:38Z,42.805,6.029,13.3013,4.60060,2470.614,2022-12-21T03:54:33Z
2022-12-21T01:51:41Z,42.805,6.029,13.3011,4.60059,2470.637,2022-12-21T03:57:36Z
2022-12-21T01:54:44Z,42.805,6.029,13.3012,4.60062,2470.591,2022-12-21T04:00:39Z
2022-12-21T01:57:47Z,42.805,6.029,13.3007,4.60062,2470.624,2022-12-21T04:03:42Z
2022-12-21T02:00:50Z,42.805,6.029,13.3009,4.60061,2470.646,2022-12-21T04:06:46Z
2022-12-21T02:03:53Z,42.805,6.029,13.3015,4.60062,2470.646,2022-12-21T04:09:49Z
2022-12-21T02:06:56Z,42.805,6.029,13.3011,4.60060,2470.661,2022-12-21T04:12:52Z
2022-12-21T02:09:59Z,42.805,6.029,13.3009,4.60060,2470.661,2022-12-21T04:15:55Z
2022-12-21T02:13:03Z,42.805,6.029,13.3010,4.60061,2470.646,2022-12-21T04:18:58Z
2022-12-21T02:16:06Z,42.805,6.029,13.3011,4.60060,2470.646,2022-12-21T04:22:01Z
2022-12-21T02:19:09Z,42.805,6.029,13.3011,4.60061,2470.646,2022-12-21T04:25:04Z
2022-12-21T02:22:12Z,42.805,6.029,13.3014,4.60060,2470.637,2022-12-21T04:28:07Z
2022-12-21T02:25:15Z,42.805,6.029,13.3012,4.60062,2470.624,2022-12-21T04:31:10Z
2022-12-21T02:28:18Z,42.805,6.029,13.3011,4.60062,2470.646,2022-12-21T04:34:13Z
2022-12-21T02:31:21Z,42.805,6.029,13.3014,4.60060,2470.684,2022-12-21T04:37:16Z
2022-12-21T02:34:24Z,42.805,6.029,13.3014,4.60062,2470.684,2022-12-21T04:40:20Z
2022-12-21T02:37:27Z,42.805,6.029,13.3012,4.60060,2470.67,2022-12-21T04:43:23Z
2022-12-21T02:40:30Z,42.805,6.029,13.3015,4.60061,2470.646,2022-12-21T04:46:26Z
2022-12-21T02:43:33Z,42.805,6.029,13.3012,4.60062,2470.67,2022-12-21T04:49:29Z
2022-12-21T02:46:36Z,42.805,6.029,13.3009,4.60062,2470.67,2022-12-21T04:52:32Z
2022-12-21T02:49:40Z,42.805,6.029,13.3009,4.60061,2470.707,2022-12-21T04:55:35Z
2022-12-21T02:52:43Z,42.805,6.029,13.3009,4.60062,2470.684,2022-12-21T04:58:38Z
2022-12-21T02:55:46Z,42.805,6.029,13.3010,4.60061,2470.707,2022-12-21T05:01:41Z
2022-12-21T02:58:49Z,42.805,6.029,13.3014,4.60061,2470.67,2022-12-21T05:04:44Z
2022-12-21T03:01:52Z,42.805,6.029,13.3011,4.60062,2470.67,2022-12-21T05:07:47Z
2022-12-21T03:04:55Z,42.805,6.029,13.3014,4.60062,2470.67,2022-12-21T05:10:50Z
2022-12-21T03:07:58Z,42.805,6.029,13.3011,4.60061,2470.693,2022-12-21T05:13:54Z
2022-12-21T03:11:01Z,42.805,6.029,13.3010,4.60061,2470.67,2022-12-21T05:16:57Z
2022-12-21T03:14:04Z,42.805,6.029,13.3010,4.60060,2470.693,2022-12-21T05:20:00Z
2022-12-21T03:17:07Z,42.805,6.029,13.3011,4.60061,2470.707,2022-12-21T05:23:03Z
2022-12-21T03:20:10Z,42.805,6.029,13.3014,4.60062,2470.693,2022-12-21T05:26:06Z
2022-12-21T03:23:14Z,42.805,6.029,13.3012,4.60062,2470.73,2022-12-21T05:29:09Z
2022-12-21T03:26:17Z,42.805,6.029,13.3015,4.60062,2470.707,2022-12-21T05:32:12Z
2022-12-21T03:29:20Z,42.805,6.029,13.3014,4.60062,2470.693,2022-12-21T05:35:15Z
2022-12-21T03:32:23Z,42.805,6.029,13.3014,4.60061,2470.693,2022-12-21T05:38:18Z
2022-12-21T03:35:26Z,42.805,6.029,13.3008,4.60061,2470.717,2022-12-21T05:41:21Z
2022-12-21T03:38:29Z,42.805,6.029,13.3014,4.60062,2470.693,2022-12-21T05:44:24Z
2022-12-21T03:41:32Z,42.805,6.029,13.3012,4.60062,2470.717,2022-12-21T05:47:27Z
2022-12-21T03:44:35Z,42.805,6.029,13.3014,4.60061,2470.74,2022-12-21T05:50:31Z
2022-12-21T03:47:38Z,42.805,6.029,13.3013,4.60061,2470.693,2022-12-21T05:53:34Z
2022-12-21T03:50:41Z,42.805,6.029,13.3011,4.60062,2470.717,2022-12-21T05:56:37Z
2022-12-21T03:53:44Z,42.805,6.029,13.3010,4.60061,2470.717,2022-12-21T05:59:40Z
2022-12-21T03:56:47Z,42.805,6.029,13.3011,4.60062,2470.717,2022-12-21T06:02:43Z
2022-12-21T03:59:51Z,42.805,6.029,13.3013,4.60061,2470.75,2022-12-21T06:05:46Z
2022-12-21T04:02:54Z,42.805,6.029,13.3010,4.60062,2470.74,2022-12-21T06:08:49Z
2022-12-21T04:05:57Z,42.805,6.029,13.3011,4.60061,2470.754,2022-12-21T06:11:52Z
2022-12-21T04:09:00Z,42.805,6.029,13.3011,4.60062,2470.74,2022-12-21T06:14:55Z
2022-12-21T04:12:03Z,42.805,6.029,13.3011,4.60061,2470.74,2022-12-21T06:17:58Z
2022-12-21T04:15:06Z,42.805,6.029,13.3014,4.60061,2470.73,2022-12-21T06:21:01Z
2022-12-21T04:18:09Z,42.805,6.029,13.3013,4.60061,2470.73,2022-12-21T06:24:05Z
2022-12-21T04:21:12Z,42.805,6.029,13.3011,4.60061,2470.74,2022-12-21T06:27:08Z
2022-12-21T04:24:15Z,42.805,6.029,13.3012,4.60062,2470.726,2022-12-21T06:30:11Z
2022-12-21T04:27:18Z,42.805,6.029,13.3012,4.60062,2470.754,2022-12-21T06:33:14Z
2022-12-21T04:30:21Z,42.805,6.029,13.3010,4.60062,2470.74,2022-12-21T06:36:17Z
2022-12-21T04:33:25Z,42.805,6.029,13.3009,4.60062,2470.717,2022-12-21T06:39:20Z
2022-12-21T04:36:28Z,42.805,6.029,13.3013,4.60063,2470.693,2022-12-21T06:42:23Z
2022-12-21T04:39:31Z,42.805,6.029,13.3011,4.60062,2470.73,2022-12-21T06:45:26Z
2022-12-21T04:42:34Z,42.805,6.029,13.3010,4.60061,2470.74,2022-12-21T06:48:29Z
2022-12-21T04:45:37Z,42.805,6.029,13.3011,4.60061,2470.74,2022-12-21T06:51:32Z
2022-12-21T04:48:40Z,42.805,6.029,13.3011,4.60061,2470.693,2022-12-21T06:54:35Z
2022-12-21T04:51:43Z,42.805,6.029,13.3010,4.60062,2470.763,2022-12-21T06:57:38Z
2022-12-21T04:54:46Z,42.805,6.029,13.3014,4.60062,2470.754,2022-12-21T07:00:42Z
2022-12-21T04:57:49Z,42.805,6.029,13.3013,4.60061,2470.74,2022-12-21T07:03:45Z
2022-12-21T05:00:52Z,42.805,6.029,13.3011,4.60062,2470.763,2022-12-21T07:06:48Z
2022-12-21T05:03:55Z,42.805,6.029,13.3011,4.60061,2470.74,2022-12-21T07:09:51Z
2022-12-21T05:06:58Z,42.805,6.029,13.3008,4.60061,2470.754,2022-12-21T07:12:54Z
2022-12-21T05:10:02Z,42.805,6.029,13.3013,4.60063,2470.777,2022-12-21T07:15:57Z
2022-12-21T05:13:05Z,42.805,6.029,13.3009,4.60061,2470.73,2022-12-21T07:19:00Z
2022-12-21T05:16:08Z,42.805,6.029,13.3013,4.60063,2470.717,2022-12-21T07:22:03Z
2022-12-21T05:19:11Z,42.805,6.029,13.3011,4.60062,2470.754,2022-12-21T07:25:06Z
2022-12-21T05:22:14Z,42.805,6.029,13.3011,4.60060,2470.74,2022-12-21T07:28:09Z
2022-12-21T05:25:17Z,42.805,6.029,13.3009,4.60062,2470.754,2022-12-21T07:31:12Z
2022-12-21T05:28:20Z,42.805,6.029,13.3012,4.60062,2470.777,2022-12-21T07:34:16Z
2022-12-21T05:31:23Z,42.805,6.029,13.3013,4.60062,2470.74,2022-12-21T07:37:19Z
2022-12-21T05:34:26Z,42.805,6.029,13.3009,4.60060,2470.74,2022-12-21T07:40:22Z
2022-12-21T05:37:29Z,42.805,6.029,13.3011,4.60060,2470.74,2022-12-21T07:43:25Z
2022-12-21T05:40:32Z,42.805,6.029,13.3009,4.60061,2470.763,2022-12-21T07:46:28Z
2022-12-21T05:43:35Z,42.805,6.029,13.3010,4.60062,2470.717,2022-12-21T07:49:31Z
2022-12-21T05:46:39Z,42.805,6.029,13.3011,4.60062,2470.754,2022-12-21T07:52:34Z
2022-12-21T05:49:42Z,42.805,6.029,13.3009,4.60061,2470.74,2022-12-21T07:55:37Z
2022-12-21T05:52:45Z,42.805,6.029,13.3014,4.60061,2470.74,2022-12-21T07:58:40Z
2022-12-21T05:55:48Z,42.805,6.029,13.3006,4.60062,2470.74,2022-12-21T08:01:43Z
2022-12-21T05:58:51Z,42.805,6.029,13.3010,4.60062,2470.787,2022-12-21T08:04:46Z
2022-12-21T06:01:54Z,42.805,6.029,13.3014,4.60060,2470.75,2022-12-21T08:07:50Z
2022-12-21T06:04:57Z,42.805,6.029,13.3011,4.60060,2470.763,2022-12-21T08:10:53Z
2022-12-21T06:08:00Z,42.805,6.029,13.3011,4.60062,2470.763,2022-12-21T08:13:56Z
2022-12-21T06:11:03Z,42.805,6.029,13.3012,4.60062,2470.763,2022-12-21T08:16:59Z
2022-12-21T06:14:06Z,42.805,6.029,13.3014,4.60062,2470.74,2022-12-21T08:20:02Z
2022-12-21T06:17:09Z,42.805,6.029,13.3010,4.60062,2470.763,2022-12-21T08:23:05Z
2022-12-21T06:20:13Z,42.805,6.029,13.3009,4.60062,2470.74,2022-12-21T08:26:08Z
2022-12-21T06:23:16Z,42.805,6.029,13.3009,4.60062,2470.74,2022-12-21T08:29:11Z
2022-12-21T06:26:19Z,42.805,6.029,13.3015,4.60061,2470.754,2022-12-21T08:32:14Z
2022-12-21T06:29:22Z,42.805,6.029,13.3013,4.60061,2470.74,2022-12-21T08:35:17Z
2022-12-21T06:32:25Z,42.805,6.029,13.3010,4.60062,2470.754,2022-12-21T08:38:20Z
2022-12-21T06:35:28Z,42.805,6.029,13.3010,4.60062,2470.754,2022-12-21T08:41:23Z
2022-12-21T06:38:31Z,42.805,6.029,13.3006,4.60061,2470.74,2022-12-21T08:44:27Z
2022-12-21T06:41:34Z,42.805,6.029,13.3009,4.60062,2470.73,2022-12-21T08:47:30Z
2022-12-21T06:44:37Z,42.805,6.029,13.3010,4.60061,2470.74,2022-12-21T08:50:33Z
2022-12-21T06:47:40Z,42.805,6.029,13.3009,4.60062,2470.763,2022-12-21T08:53:36Z
2022-12-21T06:50:43Z,42.805,6.029,13.3009,4.60060,2470.74,2022-12-21T08:56:39Z
2022-12-21T06:53:46Z,42.805,6.029,13.3008,4.60061,2470.754,2022-12-21T08:59:42Z
2022-12-21T06:56:50Z,42.805,6.029,13.3014,4.60062,2470.74,2022-12-21T09:02:45Z
2022-12-21T06:59:53Z,42.805,6.029,13.3009,4.60061,2470.74,2022-12-21T09:05:48Z
2022-12-21T07:02:56Z,42.805,6.029,13.3010,4.60061,2470.74,2022-12-21T09:08:51Z
2022-12-21T07:05:59Z,42.805,6.029,13.3011,4.60062,2470.754,2022-12-21T09:11:54Z
2022-12-21T07:09:02Z,42.805,6.029,13.3011,4.60061,2470.754,2022-12-21T09:14:57Z
2022-12-21T07:12:05Z,42.805,6.029,13.3008,4.60061,2470.717,2022-12-21T09:18:01Z
2022-12-21T07:15:08Z,42.805,6.029,13.3011,4.60062,2470.74,2022-12-21T09:21:04Z
2022-12-21T07:18:11Z,42.805,6.029,13.3010,4.60062,2470.73,2022-12-21T09:24:07Z
2022-12-21T07:21:14Z,42.805,6.029,13.3012,4.60062,2470.74,2022-12-21T09:27:10Z
2022-12-21T07:24:17Z,42.805,6.029,13.3009,4.60061,2470.717,2022-12-21T09:30:13Z
2022-12-21T07:27:20Z,42.805,6.029,13.3011,4.60062,2470.74,2022-12-21T09:33:16Z
2022-12-21T07:30:23Z,42.805,6.029,13.3008,4.60060,2470.717,2022-12-21T09:36:19Z
2022-12-21T07:33:27Z,42.805,6.029,13.3009,4.60062,2470.707,2022-12-21T09:39:22Z
2022-12-21T07:36:30Z,42.805,6.029,13.3013,4.60061,2470.73,2022-12-21T09:42:25Z
2022-12-21T07:39:33Z,42.805,6.029,13.3012,4.60061,2470.717,2022-12-21T09:45:28Z
2022-12-21T07:42:36Z,42.805,6.029,13.3013,4.60061,2470.717,2022-12-21T09:48:31Z
2022-12-21T07:45:39Z,42.805,6.029,13.3009,4.60061,2470.73,2022-12-21T09:51:34Z
2022-12-21T07:48:42Z,42.805,6.029,13.3009,4.60061,2470.74,2022-12-21T09:54:38Z
2022-12-21T07:51:45Z,42.805,6.029,13.3012,4.60062,2470.74,2022-12-21T09:57:41Z
2022-12-21T07:54:48Z,42.805,6.029,13.3011,4.60063,2470.707,2022-12-21T10:00:44Z
2022-12-21T07:57:51Z,42.805,6.029,13.3013,4.60062,2470.717,2022-12-21T10:03:47Z
2022-12-21T08:00:54Z,42.805,6.029,13.3009,4.60062,2470.74,2022-12-21T10:06:50Z
2022-12-21T08:03:57Z,42.805,6.029,13.3011,4.60063,2470.74,2022-12-21T10:09:53Z
2022-12-21T08:07:01Z,42.805,6.029,13.3013,4.60061,2470.717,2022-12-21T10:12:56Z
2022-12-21T08:10:04Z,42.805,6.029,13.3011,4.60061,2470.717,2022-12-21T10:15:59Z
2022-12-21T08:13:07Z,42.805,6.029,13.3013,4.60061,2470.717,2022-12-21T10:19:02Z
2022-12-21T08:16:10Z,42.805,6.029,13.3014,4.60062,2470.717,2022-12-21T10:22:05Z
2022-12-21T08:19:13Z,42.805,6.029,13.3011,4.60061,2470.693,2022-12-21T10:25:08Z
2022-12-21T08:22:16Z,42.805,6.029,13.3011,4.60062,2470.67,2022-12-21T10:28:12Z
2022-12-21T08:25:19Z,42.805,6.029,13.3009,4.60061,2470.693,2022-12-21T10:31:15Z
2022-12-21T08:28:22Z,42.805,6.029,13.3011,4.60063,2470.684,2022-12-21T10:34:18Z
2022-12-21T08:31:25Z,42.805,6.029,13.3011,4.60060,2470.693,2022-12-21T10:37:21Z
2022-12-21T08:34:28Z,42.805,6.029,13.3009,4.60062,2470.693,2022-12-21T10:40:24Z
2022-12-21T08:37:31Z,42.805,6.029,13.3011,4.60062,2470.707,2022-12-21T10:43:27Z
2022-12-21T08:40:35Z,42.805,6.029,13.3014,4.60060,2470.646,2022-12-21T10:46:30Z
2022-12-21T08:43:38Z,42.805,6.029,13.3010,4.60062,2470.693,2022-12-21T10:49:33Z
2022-12-21T08:46:41Z,42.805,6.029,13.3014,4.60064,2470.73,2022-12-21T10:52:36Z
2022-12-21T08:49:44Z,42.805,6.029,13.3011,4.60061,2470.707,2022-12-21T10:55:39Z
2022-12-21T08:52:47Z,42.805,6.029,13.3014,4.60061,2470.717,2022-12-21T10:58:43Z
2022-12-21T08:55:50Z,42.805,6.029,13.3007,4.60062,2470.707,2022-12-21T11:01:46Z
2022-12-21T08:58:53Z,42.805,6.029,13.3011,4.60061,2470.717,2022-12-21T11:04:49Z
2022-12-21T09:01:56Z,42.805,6.029,13.3012,4.60062,2470.707,2022-12-21T11:07:52Z
2022-12-21T09:04:59Z,42.805,6.029,13.3011,4.60062,2470.73,2022-12-21T11:10:55Z
2022-12-21T09:08:02Z,42.805,6.029,13.3009,4.60061,2470.684,2022-12-21T11:13:58Z
2022-12-21T09:11:05Z,42.805,6.029,13.3013,4.60062,2470.693,2022-12-21T11:17:01Z
2022-12-21T09:14:09Z,42.805,6.029,13.3012,4.60061,2470.67,2022-12-21T11:20:04Z
2022-12-21T09:17:12Z,42.805,6.029,13.3014,4.60062,2470.707,2022-12-21T11:23:07Z
2022-12-21T09:20:15Z,42.805,6.029,13.3014,4.60062,2470.684,2022-12-21T11:26:10Z
2022-12-21T09:23:18Z,42.805,6.029,13.3009,4.60061,2470.707,2022-12-21T11:29:13Z
2022-12-21T09:26:21Z,42.805,6.029,13.3012,4.60062,2470.684,2022-12-21T11:32:17Z
2022-12-21T09:29:24Z,42.805,6.029,13.3009,4.60062,2470.693,2022-12-21T11:35:20Z
2022-12-21T09:32:27Z,42.805,6.029,13.3012,4.60062,2470.67,2022-12-21T11:38:23Z
2022-12-21T09:35:30Z,42.805,6.029,13.3011,4.60061,2470.684,2022-12-21T11:41:26Z
2022-12-21T09:38:33Z,42.805,6.029,13.3011,4.60062,2470.684,2022-12-21T11:44:29Z
2022-12-21T09:41:36Z,42.805,6.029,13.3015,4.60061,2470.684,2022-12-21T11:47:32Z
2022-12-21T09:44:39Z,42.805,6.029,13.3013,4.60061,2470.646,2022-12-21T11:50:35Z
2022-12-21T09:47:43Z,42.805,6.029,13.3011,4.60062,2470.67,2022-12-21T11:53:38Z
2022-12-21T09:50:46Z,42.805,6.029,13.3012,4.60061,2470.67,2022-12-21T11:56:41Z
2022-12-21T09:53:49Z,42.805,6.029,13.3009,4.60062,2470.684,2022-12-21T11:59:44Z
2022-12-21T09:56:52Z,42.805,6.029,13.3011,4.60063,2470.661,2022-12-21T12:02:47Z
2022-12-21T09:59:55Z,42.805,6.029,13.3010,4.60062,2470.693,2022-12-21T12:05:51Z
2022-12-21T10:02:58Z,42.805,6.029,13.3013,4.60061,2470.67,2022-12-21T12:08:54Z
2022-12-21T10:06:01Z,42.805,6.029,13.3014,4.60062,2470.684,2022-12-21T12:11:57Z
2022-12-21T10:09:04Z,42.805,6.029,13.3011,4.60062,2470.646,2022-12-21T12:15:00Z
2022-12-21T10:12:07Z,42.805,6.029,13.3013,4.60062,2470.661,2022-12-21T12:18:03Z
2022-12-21T10:15:10Z,42.805,6.029,13.3013,4.60062,2470.67,2022-12-21T12:21:06Z
2022-12-21T10:18:13Z,42.805,6.029,13.3013,4.60063,2470.67,2022-12-21T12:24:09Z
2022-12-21T10:21:17Z,42.805,6.029,13.3012,4.60061,2470.646,2022-12-21T12:27:12Z
2022-12-21T10:24:20Z,42.805,6.029,13.3015,4.60061,2470.661,2022-12-21T12:30:15Z
2022-12-21T10:27:23Z,42.805,6.029,13.3009,4.60062,2470.646,2022-12-21T12:33:18Z
2022-12-21T10:30:26Z,42.805,6.029,13.3009,4.60061,2470.624,2022-12-21T12:36:21Z
2022-12-21T10:33:29Z,42.805,6.029,13.3011,4.60062,2470.684,2022-12-21T12:39:25Z
2022-12-21T10:36:32Z,42.805,6.029,13.3013,4.60062,2470.661,2022-12-21T12:42:28Z
2022-12-21T10:39:35Z,42.805,6.029,13.3011,4.60061,2470.614,2022-12-21T12:45:31Z
2022-12-21T10:42:38Z,42.805,6.029,13.3012,4.60062,2470.637,2022-12-21T12:48:34Z
2022-12-21T10:45:41Z,42.805,6.029,13.3013,4.60062,2470.646,2022-12-21T12:51:37Z
2022-12-21T10:48:44Z,42.805,6.029,13.3013,4.60061,2470.646,2022-12-21T12:54:40Z
2022-12-21T10:51:47Z,42.805,6.029,13.3013,4.60061,2470.661,2022-12-21T12:57:43Z
2022-12-21T10:54:51Z,42.805,6.029,13.3011,4.60061,2470.661,2022-12-21T13:00:46Z
2022-12-21T10:57:54Z,42.805,6.029,13.3006,4.60062,2470.637,2022-12-21T13:03:49Z
2022-12-21T11:00:57Z,42.805,6.029,13.3013,4.60062,2470.563,2022-12-21T13:06:52Z
2022-12-21T11:04:00Z,42.805,6.029,13.3013,4.60061,2470.646,2022-12-21T13:09:55Z
2022-12-21T11:07:03Z,42.805,6.029,13.3010,4.60063,2470.661,2022-12-21T13:12:59Z
2022-12-21T11:10:06Z,42.805,6.029,13.3013,4.60061,2470.646,2022-12-21T13:16:02Z
2022-12-21T11:13:09Z,42.805,6.029,13.3015,4.60062,2470.637,2022-12-21T13:19:05Z
2022-12-21T11:16:12Z,42.805,6.029,13.3014,4.60061,2470.61,2022-12-21T13:22:08Z
2022-12-21T11:19:15Z,42.805,6.029,13.3014,4.60062,2470.646,2022-12-21T13:25:11Z
2022-12-21T11:22:18Z,42.805,6.029,13.3014,4.60062,2470.624,2022-12-21T13:28:14Z
2022-12-21T11:25:21Z,42.805,6.029,13.3009,4.60062,2470.646,2022-12-21T13:31:17Z
2022-12-21T11:28:25Z,42.805,6.029,13.3014,4.60062,2470.637,2022-12-21T13:34:20Z
2022-12-21T11:31:28Z,42.805,6.029,13.3011,4.60061,2470.6,2022-12-21T13:37:23Z
2022-12-21T11:34:31Z,42.805,6.029,13.3009,4.60061,2470.637,2022-12-21T13:40:26Z
2022-12-21T11:37:34Z,42.805,6.029,13.3010,4.60062,2470.6,2022-12-21T13:43:30Z
2022-12-21T11:40:37Z,42.805,6.029,13.3015,4.60061,2470.624,2022-12-21T13:46:33Z
2022-12-21T11:43:40Z,42.805,6.029,13.3007,4.60061,2470.624,2022-12-21T13:49:36Z
2022-12-21T11:46:43Z,42.805,6.029,13.3009,4.60062,2470.624,2022-12-21T13:52:39Z
2022-12-21T11:49:46Z,42.805,6.029,13.3010,4.60062,2470.61,2022-12-21T13:55:42Z
2022-12-21T11:52:49Z,42.805,6.029,13.3009,4.60060,2470.6,2022-12-21T13:58:45Z
2022-12-21T11:55:52Z,42.805,6.029,13.3011,4.60062,2470.6,2022-12-21T14:01:48Z
2022-12-21T11:58:55Z,42.805,6.029,13.3011,4.60062,2470.614,2022-12-21T14:04:51Z
2022-12-21T12:01:59Z,42.805,6.029,13.3014,4.60062,2470.577,2022-12-21T14:07:54Z
2022-12-21T12:05:02Z,42.805,6.029,13.3011,4.60060,2470.591,2022-12-21T14:10:57Z
2022-12-21T12:08:05Z,42.805,6.029,13.3014,4.60061,2470.6,2022-12-21T14:14:00Z
2022-12-21T12:11:08Z,42.805,6.029,13.3012,4.60060,2470.624,2022-12-21T14:17:04Z
2022-12-21T12:14:11Z,42.805,6.029,13.3014,4.60062,2470.6,2022-12-21T14:20:07Z
2022-12-21T12:17:14Z,42.805,6.029,13.3011,4.60062,2470.6,2022-12-21T14:23:10Z
2022-12-21T12:20:17Z,42.805,6.029,13.3015,4.60061,2470.614,2022-12-21T14:26:13Z
2022-12-21T12:23:20Z,42.805,6.029,13.3013,4.60061,2470.624,2022-12-21T14:29:16Z
2022-12-21T12:26:23Z,42.805,6.029,13.3010,4.60061,2470.661,2022-12-21T14:32:19Z
2022-12-21T12:29:26Z,42.805,6.029,13.3015,4.60062,2470.6,2022-12-21T14:35:22Z
2022-12-21T12:32:29Z,42.805,6.029,13.3012,4.60061,2470.577,2022-12-21T14:38:25Z
2022-12-21T12:35:33Z,42.805,6.029,13.3010,4.60060,2470.591,2022-12-21T14:41:28Z
2022-12-21T12:38:36Z,42.805,6.029,13.3013,4.60062,2470.577,2022-12-21T14:44:31Z
2022-12-21T12:41:39Z,42.805,6.029,13.3013,4.60062,2470.6,2022-12-21T14:47:34Z
2022-12-21T12:44:42Z,42.805,6.029,13.3009,4.60062,2470.6,2022-12-21T14:50:38Z
2022-12-21T12:47:45Z,42.805,6.029,13.3011,4.60060,2470.6,2022-12-21T14:53:41Z
2022-12-21T12:50:48Z,42.805,6.029,13.3012,4.60062,2470.6,2022-12-21T14:56:44Z
2022-12-21T12:53:51Z,42.805,6.029,13.3011,4.60060,2470.6,2022-12-21T14:59:47Z
2022-12-21T12:56:54Z,42.805,6.029,13.3014,4.60060,2470.624,2022-12-21T15:02:50Z
2022-12-21T12:59:57Z,42.805,6.029,13.3013,4.60062,2470.614,2022-12-21T15:05:53Z
2022-12-21T13:03:00Z,42.805,6.029,13.3013,4.60060,2470.6,2022-12-21T15:08:56Z
2022-12-21T13:06:03Z,42.805,6.029,13.3012,4.60062,2470.6,2022-12-21T15:11:59Z
2022-12-21T13:09:07Z,42.805,6.029,13.3012,4.60061,2470.577,2022-12-21T15:15:02Z
2022-12-21T13:12:10Z,42.805,6.029,13.3009,4.60060,2470.6,2022-12-21T15:18:05Z
2022-12-21T13:15:13Z,42.805,6.029,13.3009,4.60060,2470.6,2022-12-21T15:21:08Z
2022-12-21T13:18:16Z,42.805,6.029,13.3013,4.60061,2470.614,2022-12-21T15:24:12Z
2022-12-21T13:21:19Z,42.805,6.029,13.3011,4.60062,2470.6,2022-12-21T15:27:15Z
2022-12-21T13:24:22Z,42.805,6.029,13.3012,4.60060,2470.6,2022-12-21T15:30:18Z
2022-12-21T13:27:25Z,42.805,6.029,13.3014,4.60062,2470.633,2022-12-21T15:33:21Z
2022-12-21T13:30:28Z,42.805,6.029,13.3015,4.60062,2470.614,2022-12-21T15:36:24Z
2022-12-21T13:33:31Z,42.805,6.029,13.3012,4.60062,2470.624,2022-12-21T15:39:27Z
2022-12-21T13:36:34Z,42.805,6.029,13.3009,4.60062,2470.624,2022-12-21T15:42:30Z
2022-12-21T13:39:37Z,42.805,6.029,13.3017,4.60062,2470.6,2022-12-21T15:45:33Z
2022-12-21T13:42:41Z,42.805,6.029,13.3014,4.60062,2470.637,2022-12-21T15:48:36Z
2022-12-21T13:45:44Z,42.805,6.029,13.3011,4.60062,2470.6,2022-12-21T15:51:39Z
2022-12-21T13:48:47Z,42.805,6.029,13.3011,4.60061,2470.624,2022-12-21T15:54:42Z
2022-12-21T13:51:50Z,42.805,6.029,13.3012,4.60062,2470.646,2022-12-21T15:57:46Z
2022-12-21T13:54:53Z,42.805,6.029,13.3011,4.60061,2470.646,2022-12-21T16:00:49Z
2022-12-21T13:57:56Z,42.805,6.029,13.3017,4.60063,2470.624,2022-12-21T16:03:52Z
2022-12-21T14:00:59Z,42.805,6.029,13.3014,4.60062,2470.6,2022-12-21T16:06:55Z
2022-12-21T14:04:02Z,42.805,6.029,13.3011,4.60063,2470.646,2022-12-21T16:09:58Z
2022-12-21T14:07:05Z,42.805,6.029,13.3015,4.60062,2470.661,2022-12-21T16:13:01Z
2022-12-21T14:10:08Z,42.805,6.029,13.3014,4.60062,2470.624,2022-12-21T16:16:04Z
2022-12-21T14:13:11Z,42.805,6.029,13.3011,4.60061,2470.661,2022-12-21T16:19:07Z
2022-12-21T14:16:15Z,42.805,6.029,13.3010,4.60062,2470.624,2022-12-21T16:22:10Z
2022-12-21T14:19:18Z,42.805,6.029,13.3011,4.60062,2470.661,2022-12-21T16:25:13Z
2022-12-21T14:22:21Z,42.805,6.029,13.3014,4.60062,2470.637,2022-12-21T16:28:17Z
2022-12-21T14:25:24Z,42.805,6.029,13.3012,4.60062,2470.637,2022-12-21T16:31:20Z
2022-12-21T14:28:27Z,42.805,6.029,13.3009,4.60063,2470.646,2022-12-21T16:34:23Z
2022-12-21T14:31:30Z,42.805,6.029,13.3012,4.60061,2470.67,2022-12-21T16:37:26Z
2022-12-21T14:34:33Z,42.805,6.029,13.3009,4.60062,2470.646,2022-12-21T16:40:29Z
2022-12-21T14:37:36Z,42.805,6.029,13.3014,4.60061,2470.67,2022-12-21T16:43:32Z
2022-12-21T14:40:39Z,42.805,6.029,13.3015,4.60062,2470.646,2022-12-21T16:46:35Z
2022-12-21T14:43:42Z,42.805,6.029,13.3012,4.60062,2470.646,2022-12-21T16:49:38Z
2022-12-21T14:46:45Z,42.805,6.029,13.3008,4.60062,2470.707,2022-12-21T16:52:41Z
2022-12-21T14:49:49Z,42.805,6.029,13.3014,4.60061,2470.693,2022-12-21T16:55:44Z
2022-12-21T14:52:52Z,42.805,6.029,13.3013,4.60061,2470.661,2022-12-21T16:58:47Z
2022-12-21T14:55:55Z,42.805,6.029,13.3014,4.60061,2470.707,2022-12-21T17:01:51Z
2022-12-21T14:58:58Z,42.805,6.029,13.3012,4.60062,2470.684,2022-12-21T17:04:54Z
2022-12-21T15:02:01Z,42.805,6.029,13.3013,4.60060,2470.693,2022-12-21T17:07:57Z